This is the latest recevied weather packets stored in our database for station/object WW5JC. If no packets are shown the sender has not sent any weather packets the latest 1 day(s).
| Time | Temp. | Humidity | Pressure | Rain* | Wind** | Luminosity | Snow |
|---|---|---|---|---|---|---|---|
| 1777977929 | 21.11° C | 89% | 1006 hPa | 0 mm | 3.13 m/s, 204° | 0 W/m² | - |
| 1777977626 | 21.11° C | 89% | 1006.1 hPa | 0 mm | 2.24 m/s, 205° | 0 W/m² | - |
| 1777977318 | 21.11° C | 89% | 1005.9 hPa | 0 mm | 4.47 m/s, 217° | 0 W/m² | - |
| 1777977015 | 21.11° C | 88% | 1005.9 hPa | 0 mm | 4.02 m/s, 210° | 0 W/m² | - |
| 1777976712 | 21.11° C | 88% | 1006 hPa | 0 mm | 6.26 m/s, 209° | 0 W/m² | - |
| 1777976410 | 21.11° C | 88% | 1006 hPa | 0 mm | 4.47 m/s, 206° | 0 W/m² | - |
| 1777976108 | 21.11° C | 88% | 1006.2 hPa | 0 mm | 3.58 m/s, 199° | 0 W/m² | - |
| 1777975804 | 21.11° C | 88% | 1006.2 hPa | 0 mm | 3.58 m/s, 216° | 0 W/m² | - |
| 1777975501 | 21.11° C | 88% | 1006 hPa | 0 mm | 1.79 m/s, 198° | 0 W/m² | - |
| 1777975197 | 21.11° C | 88% | 1006.1 hPa | 0 mm | 4.02 m/s, 198° | 0 W/m² | - |
| 1777974894 | 21.11° C | 88% | 1006 hPa | 0 mm | 3.58 m/s, 195° | 0 W/m² | - |
| 1777974590 | 21.11° C | 88% | 1006.1 hPa | 0 mm | 4.47 m/s, 193° | 0 W/m² | - |
| 1777974288 | 21.11° C | 88% | 1006.3 hPa | 0 mm | 4.02 m/s, 222° | 0 W/m² | - |
| 1777973983 | 21.11° C | 88% | 1006.1 hPa | 0 mm | 4.47 m/s, 184° | 0 W/m² | - |
| 1777973680 | 21.11° C | 88% | 1006.2 hPa | 0 mm | 4.02 m/s, 192° | 0 W/m² | - |
| 1777973377 | 21.11° C | 88% | 1006.2 hPa | 0 mm | 3.13 m/s, 211° | 0 W/m² | - |
| 1777973075 | 21.11° C | 88% | 1006.3 hPa | 0 mm | 1.79 m/s, 189° | 0 W/m² | - |
| 1777972773 | 21.11° C | 87% | 1006.3 hPa | 0 mm | 4.47 m/s, 194° | 0 W/m² | - |
| 1777972470 | 21.67° C | 88% | 1006.2 hPa | 0 mm | 2.24 m/s, 204° | 0 W/m² | - |
| 1777972168 | 21.11° C | 87% | 1006.3 hPa | 0 mm | 2.68 m/s, 178° | 0 W/m² | - |
| 1777971866 | 21.67° C | 87% | 1006.1 hPa | 0 mm | 2.24 m/s, 189° | 0 W/m² | - |
| 1777971563 | 21.67° C | 87% | 1006.3 hPa | 0 mm | 1.79 m/s, 175° | 0 W/m² | - |
| 1777971261 | 21.67° C | 87% | 1006.3 hPa | 0 mm | 2.68 m/s, 209° | 0 W/m² | - |
| 1777970959 | 21.67° C | 87% | 1006.1 hPa | 0 mm | 3.13 m/s, 197° | 0 W/m² | - |
| 1777970656 | 21.67° C | 87% | 1006.3 hPa | 0 mm | 4.02 m/s, 247° | 0 W/m² | - |
* Rain latest hour (hover to see other rain measurements)
** Current wind speed in m/s (hover to see current wind gust speed)